Home   Weather   Avellino   Past weeks

Flag for Italy Past Weather in Avellino, Italy — Yesterday and Last 2 Weeks

Now
45 °F

Clear.


Feels Like: 39 °F
Forecast: 29 / 58 °F
Wind: 12 mph from Northwest

Location: Trevico

Current Time: Dec 9, 2016 at 1:19:41 am

Latest Report: Dec 9, 2016 at 12:55 am


Visibility: 10 mi

Pressure: 30.48 "Hg

Humidity: 25%

Dew Point: 10 °F

Location of AvellinoLocation

Past Weather in Avellino — Graph

°F

Avellino Temperature Yesterday

Maximum temperature yesterday: 45 °F (at 8:55 pm)
Minimum temperature yesterday: 36 °F (at 1:55 am)
Average temperature yesterday: 40 °F

High & Low Weather Summary for the Past Weeks

 TemperatureHumidityPressure
High57 °F (Nov 24, 11:55 am)100% (Nov 24, 3:55 am)30.54 "Hg (Nov 24, 3:55 am)
Low28 °F (Nov 29, 5:55 am)11% (Dec 8, 8:55 pm)29.77 "Hg (Nov 28, 5:55 am)
Average42 °F82%30.12 "Hg
* Reported Nov 23 11:55 pm — Dec 8 11:55 pm, Avellino, Weather by CustomWeather, © 2016

Note: Actual official high and low records may vary slightly from our data, if they occured in-between our weather recording intervals... More about our weather records

Advertising

Avellino Weather History for the Previous 24 Hours

Scroll right to see more
 ConditionsComfort  
Time TempWeatherWind HumidityBarometerVisibility
11:55 pm
Thu, Dec 8
45 °FClear.3 mph18%30.51 "Hg10 mi
10:55 pm45 °FClear.6 mph37%30.51 "Hg10 mi
9:55 pm43 °FClear.5 mph53%30.48 "Hg10 mi
8:55 pm45 °FClear.3 mph11%30.48 "Hg10 mi
7:55 pm43 °FPassing clouds.6 mph26%30.51 "HgN/A
6:55 pm37 °FFog.5 mph87%30.51 "Hg0 mi
5:55 pm37 °FFog.10 mph93%30.51 "Hg0 mi
4:55 pm39 °FPassing clouds.10 mph87%30.51 "HgN/A
3:55 pm39 °FPassing clouds.10 mph87%30.51 "HgN/A
2:55 pm41 °FPassing clouds.10 mph81%30.51 "HgN/A
1:55 pm41 °FScattered clouds.8 mph81%30.51 "HgN/A
12:55 pm41 °FScattered clouds.9 mph81%30.51 "HgN/A
11:55 am41 °FFog.9 mph81%30.51 "Hg0 mi
10:55 am39 °FFog.9 mph81%30.54 "Hg0 mi
9:55 am37 °FFog.6 mph81%30.54 "Hg0 mi
8:55 am37 °FFog.13 mph87%30.51 "Hg0 mi
7:55 am37 °FFog.9 mph87%30.51 "Hg0 mi
6:55 am36 °FFog.9 mph93%30.51 "Hg0 mi
2:55 am36 °FPassing clouds.9 mph93%30.48 "HgN/A
1:55 am36 °FPassing clouds.10 mph93%30.48 "HgN/A
Weather by CustomWeather, © 2016

See weather overviewHow to use our weather pages